map of KCH home
KCH - Airport
Location
City:  Kuching, Sarawak, Malaysia
ICAO:WBGG
IATA:KCH

Details
Type:Airport (Aerodrome, Airfield)
Use:Public/Civil, International (customs port of entry)
Latitude:129'05"N (1.484697)
Longitude:11020'49"E (110.346933)
Datum:WGS 1984
Elevation:89 ft (27 m)
Variation:0.36E (WMM2015 magnetic declination)
-0.05 annual change
Runways:1
Longest:8051 × 151 ft (2454 × 46 m), paved

Time
Time Zone:UTC+8
Local Time:

Weather
METAR:WBGG 140730Z 33010KT 290V010 9999 FEW015CB SCT020 BKN300 30/22 Q1009 NOSIG
TAF:WBGG 140500Z 1406/1506 25005KT 9999 SCT020 BKN150
TEMPO 1407/1411 4000 TSRA FEW015CB

Related Locations
Nearby:
Farthest:LPD: 12446 mi / 20029 km
La Pedrera [La Pedrera Airport], AMA, CO

Find:

   beyond  
but within

Other Information
Maps:
NOTAMs:
Links:
Sources:

  
flag of Malaysia
flag of Sarawak
  

Sectional Chart

Flight Planning
at skyvector.com

Satellite Image

Google Maps Satellite view

 

Copyright © 2004-2017 Karl L. Swartz. All rights reserved.
The Great Circle Mapper name and logo are trademarks of the Great Circle Mapper.
All other trademarks mentioned herein belong to their respective owners.
Please see credits for attibutions and further copyright information.

  Follow gcmap on Facebook Follow gcmap on Twitter Follow gcmap on Google+ GCmap on LinkedIn

hCard Microformat

Geo Microformat